contact:dominique.lefevre@mio.osupytheas.fr, maurice.libes@osupytheas.fr, didier.mallarino@osupytheas.fr
Project:EMSO http://www.emso-fr.org/EMSO-France
Depth: 2436.0 m
Title:EMSO Ligure Ouest : Data MII capteur MICROCAT
DateTime_Computer,Latitude,Longitude,Temperature,Conductivity,Pressure,DateTime_Instrument
DateTime_Computer,Latitude,Longitude,degC,S m-1,dbar,DateTime_Instrument
2022-04-07T00:00:29Z,42.805,6.029,13.3000,4.60044,2470.343,2022-4-07T02:02:07Z
2022-04-07T00:03:32Z,42.805,6.029,13.3001,4.60047,2470.343,2022-4-07T02:05:10Z
2022-04-07T00:06:36Z,42.805,6.029,13.3000,4.60043,2470.357,2022-4-07T02:08:13Z
2022-04-07T00:09:39Z,42.805,6.029,13.3001,4.60054,2470.357,2022-4-07T02:11:16Z
2022-04-07T00:12:42Z,42.805,6.029,13.3000,4.60047,2470.38,2022-4-07T02:14:20Z
2022-04-07T00:15:45Z,42.805,6.029,13.2996,4.60073,2470.334,2022-4-07T02:17:23Z
2022-04-07T00:18:48Z,42.805,6.029,13.3002,4.60061,2470.343,2022-4-07T02:20:26Z
2022-04-07T00:21:51Z,42.805,6.029,13.3000,4.60055,2470.343,2022-4-07T02:23:29Z
2022-04-07T00:24:54Z,42.805,6.029,13.3005,4.60066,2470.32,2022-4-07T02:26:32Z
2022-04-07T00:27:57Z,42.805,6.029,13.2998,4.60069,2470.343,2022-4-07T02:29:35Z
2022-04-07T00:31:00Z,42.805,6.029,13.2997,4.60067,2470.357,2022-4-07T02:32:38Z
2022-04-07T00:34:04Z,42.805,6.029,13.2998,4.60067,2470.343,2022-4-07T02:35:41Z
2022-04-07T00:37:07Z,42.805,6.029,13.2998,4.60071,2470.343,2022-4-07T02:38:44Z
2022-04-07T00:40:10Z,42.805,6.029,13.2997,4.60067,2470.357,2022-4-07T02:41:48Z
2022-04-07T00:43:13Z,42.805,6.029,13.3000,4.60067,2470.343,2022-4-07T02:44:51Z
2022-04-07T00:46:16Z,42.805,6.029,13.2996,4.60062,2470.343,2022-4-07T02:47:54Z
2022-04-07T00:49:19Z,42.805,6.029,13.2998,4.60064,2470.357,2022-4-07T02:50:57Z
2022-04-07T00:52:22Z,42.805,6.029,13.3000,4.60064,2470.343,2022-4-07T02:54:00Z
2022-04-07T00:55:25Z,42.805,6.029,13.3000,4.60072,2470.297,2022-4-07T02:57:03Z
2022-04-07T00:58:29Z,42.805,6.029,13.3004,4.60090,2470.31,2022-4-07T03:00:06Z
2022-04-07T01:01:32Z,42.805,6.029,13.3000,4.60084,2470.297,2022-4-07T03:03:09Z
2022-04-07T01:04:35Z,42.805,6.029,13.2998,4.60067,2470.32,2022-4-07T03:06:12Z
2022-04-07T01:07:38Z,42.805,6.029,13.2998,4.60072,2470.343,2022-4-07T03:09:16Z
2022-04-07T01:10:41Z,42.805,6.029,13.2996,4.60076,2470.297,2022-4-07T03:12:19Z
2022-04-07T01:13:44Z,42.805,6.029,13.3000,4.60067,2470.334,2022-4-07T03:15:22Z
2022-04-07T01:16:47Z,42.805,6.029,13.2997,4.60057,2470.334,2022-4-07T03:18:25Z
2022-04-07T01:19:50Z,42.805,6.029,13.3001,4.60061,2470.297,2022-4-07T03:21:28Z
2022-04-07T01:22:53Z,42.805,6.029,13.2998,4.60084,2470.334,2022-4-07T03:24:31Z
2022-04-07T01:25:57Z,42.805,6.029,13.2998,4.60083,2470.297,2022-4-07T03:27:34Z
2022-04-07T01:29:00Z,42.805,6.029,13.3004,4.60079,2470.297,2022-4-07T03:30:37Z
2022-04-07T01:32:03Z,42.805,6.029,13.2999,4.60109,2470.273,2022-4-07T03:33:41Z
2022-04-07T01:35:06Z,42.805,6.029,13.2997,4.60125,2470.334,2022-4-07T03:36:44Z
2022-04-07T01:38:09Z,42.805,6.029,13.3010,4.60115,2470.32,2022-4-07T03:39:47Z
2022-04-07T01:41:12Z,42.805,6.029,13.3040,4.60088,2470.31,2022-4-07T03:42:50Z
2022-04-07T01:44:15Z,42.805,6.029,13.3076,4.60087,2470.297,2022-4-07T03:45:53Z
2022-04-07T01:47:18Z,42.805,6.029,13.3051,4.60073,2470.32,2022-4-07T03:48:56Z
2022-04-07T01:50:22Z,42.805,6.029,13.3055,4.60080,2470.297,2022-4-07T03:51:59Z
2022-04-07T01:53:25Z,42.805,6.029,13.3048,4.60096,2470.32,2022-4-07T03:55:02Z
2022-04-07T01:56:28Z,42.805,6.029,13.3056,4.60101,2470.32,2022-4-07T03:58:05Z
2022-04-07T01:59:31Z,42.805,6.029,13.3046,4.60096,2470.31,2022-4-07T04:01:09Z
2022-04-07T02:02:34Z,42.805,6.029,13.3060,4.60071,2470.32,2022-4-07T04:04:12Z
2022-04-07T02:05:37Z,42.805,6.029,13.3051,4.60076,2470.297,2022-4-07T04:07:15Z
2022-04-07T02:08:40Z,42.805,6.029,13.3048,4.60082,2470.273,2022-4-07T04:10:18Z
2022-04-07T02:11:43Z,42.805,6.029,13.3039,4.60078,2470.31,2022-4-07T04:13:21Z
2022-04-07T02:14:46Z,42.805,6.029,13.3085,4.60116,2470.297,2022-4-07T04:16:24Z
2022-04-07T02:17:50Z,42.805,6.029,13.3049,4.60105,2470.334,2022-4-07T04:19:27Z
2022-04-07T02:20:53Z,42.805,6.029,13.3056,4.60079,2470.297,2022-4-07T04:22:30Z
2022-04-07T02:23:56Z,42.805,6.029,13.3012,4.60112,2470.32,2022-4-07T04:25:34Z
2022-04-07T02:26:59Z,42.805,6.029,13.3014,4.60077,2470.31,2022-4-07T04:28:37Z
2022-04-07T02:30:02Z,42.805,6.029,13.3048,4.60070,2470.297,2022-4-07T04:31:40Z
2022-04-07T02:33:05Z,42.805,6.029,13.3062,4.60091,2470.287,2022-4-07T04:34:43Z
2022-04-07T02:36:08Z,42.805,6.029,13.3019,4.60087,2470.273,2022-4-07T04:37:46Z
2022-04-07T02:39:11Z,42.805,6.029,13.3070,4.60073,2470.297,2022-4-07T04:40:49Z
2022-04-07T02:42:14Z,42.805,6.029,13.3022,4.60079,2470.31,2022-4-07T04:43:52Z
2022-04-07T02:45:18Z,42.805,6.029,13.3006,4.60097,2470.297,2022-4-07T04:46:55Z
2022-04-07T02:48:21Z,42.805,6.029,13.2997,4.60086,2470.273,2022-4-07T04:49:58Z
2022-04-07T02:51:24Z,42.805,6.029,13.3002,4.60064,2470.25,2022-4-07T04:53:02Z
2022-04-07T02:54:27Z,42.805,6.029,13.2997,4.60074,2470.287,2022-4-07T04:56:05Z
2022-04-07T02:57:30Z,42.805,6.029,13.2997,4.60067,2470.297,2022-4-07T04:59:08Z
2022-04-07T03:00:33Z,42.805,6.029,13.3002,4.60064,2470.297,2022-4-07T05:02:11Z
2022-04-07T03:03:36Z,42.805,6.029,13.3002,4.60062,2470.31,2022-4-07T05:05:14Z
2022-04-07T03:06:39Z,42.805,6.029,13.3004,4.60064,2470.31,2022-4-07T05:08:17Z
2022-04-07T03:09:43Z,42.805,6.029,13.3000,4.60064,2470.273,2022-4-07T05:11:20Z
2022-04-07T03:12:46Z,42.805,6.029,13.3078,4.60085,2470.25,2022-4-07T05:14:23Z
2022-04-07T03:15:49Z,42.805,6.029,13.3011,4.60062,2470.287,2022-4-07T05:17:27Z
2022-04-07T03:18:52Z,42.805,6.029,13.3004,4.60072,2470.287,2022-4-07T05:20:30Z
2022-04-07T03:21:55Z,42.805,6.029,13.3004,4.60072,2470.264,2022-4-07T05:23:33Z
2022-04-07T03:24:58Z,42.805,6.029,13.2998,4.60054,2470.273,2022-4-07T05:26:36Z
2022-04-07T03:28:01Z,42.805,6.029,13.2996,4.60046,2470.25,2022-4-07T05:29:39Z
2022-04-07T03:31:04Z,42.805,6.029,13.2997,4.60044,2470.273,2022-4-07T05:32:42Z
2022-04-07T03:34:07Z,42.805,6.029,13.3000,4.60046,2470.264,2022-4-07T05:35:45Z
2022-04-07T03:37:11Z,42.805,6.029,13.3002,4.60050,2470.25,2022-4-07T05:38:48Z
2022-04-07T03:40:14Z,42.805,6.029,13.3001,4.60046,2470.273,2022-4-07T05:41:51Z
2022-04-07T03:43:17Z,42.805,6.029,13.2996,4.60049,2470.25,2022-4-07T05:44:55Z
2022-04-07T03:46:20Z,42.805,6.029,13.3000,4.60042,2470.227,2022-4-07T05:47:58Z
2022-04-07T03:49:23Z,42.805,6.029,13.2998,4.60045,2470.25,2022-4-07T05:51:01Z
2022-04-07T03:52:26Z,42.805,6.029,13.3000,4.60041,2470.31,2022-4-07T05:54:04Z
2022-04-07T03:55:29Z,42.805,6.029,13.2995,4.60039,2470.273,2022-4-07T05:57:07Z
2022-04-07T03:58:32Z,42.805,6.029,13.2993,4.60041,2470.273,2022-4-07T06:00:10Z
2022-04-07T04:01:36Z,42.805,6.029,13.3000,4.60038,2470.273,2022-4-07T06:03:13Z
2022-04-07T04:04:39Z,42.805,6.029,13.2996,4.60039,2470.25,2022-4-07T06:06:16Z
2022-04-07T04:07:42Z,42.805,6.029,13.2998,4.60037,2470.24,2022-4-07T06:09:19Z
2022-04-07T04:10:45Z,42.805,6.029,13.3002,4.60039,2470.264,2022-4-07T06:12:23Z
2022-04-07T04:13:48Z,42.805,6.029,13.3001,4.60043,2470.25,2022-4-07T06:15:26Z
2022-04-07T04:16:51Z,42.805,6.029,13.2998,4.60038,2470.273,2022-4-07T06:18:29Z
2022-04-07T04:19:54Z,42.805,6.029,13.2998,4.60039,2470.264,2022-4-07T06:21:32Z
2022-04-07T04:22:57Z,42.805,6.029,13.3002,4.60042,2470.287,2022-4-07T06:24:35Z
2022-04-07T04:26:00Z,42.805,6.029,13.3002,4.60039,2470.273,2022-4-07T06:27:38Z
2022-04-07T04:29:04Z,42.805,6.029,13.2998,4.60039,2470.287,2022-4-07T06:30:41Z
2022-04-07T04:32:07Z,42.805,6.029,13.3001,4.60036,2470.273,2022-4-07T06:33:44Z
2022-04-07T04:35:10Z,42.805,6.029,13.2999,4.60037,2470.287,2022-4-07T06:36:48Z
2022-04-07T04:38:13Z,42.805,6.029,13.2995,4.60035,2470.287,2022-4-07T06:39:51Z
2022-04-07T04:41:16Z,42.805,6.029,13.2999,4.60038,2470.25,2022-4-07T06:42:54Z
2022-04-07T04:44:19Z,42.805,6.029,13.2996,4.60036,2470.203,2022-4-07T06:45:57Z
2022-04-07T04:47:22Z,42.805,6.029,13.3002,4.60037,2470.287,2022-4-07T06:49:00Z
2022-04-07T04:50:25Z,42.805,6.029,13.3002,4.60037,2470.287,2022-4-07T06:52:03Z
2022-04-07T04:53:28Z,42.805,6.029,13.2998,4.60039,2470.287,2022-4-07T06:55:06Z
2022-04-07T04:56:32Z,42.805,6.029,13.2996,4.60036,2470.264,2022-4-07T06:58:09Z
2022-04-07T04:59:35Z,42.805,6.029,13.2998,4.60036,2470.273,2022-4-07T07:01:12Z
2022-04-07T05:02:38Z,42.805,6.029,13.2994,4.60036,2470.297,2022-4-07T07:04:16Z
2022-04-07T05:05:41Z,42.805,6.029,13.3001,4.60035,2470.273,2022-4-07T07:07:19Z
2022-04-07T05:08:44Z,42.805,6.029,13.3000,4.60035,2470.24,2022-4-07T07:10:22Z
2022-04-07T05:11:47Z,42.805,6.029,13.3001,4.60036,2470.273,2022-4-07T07:13:25Z
2022-04-07T05:14:50Z,42.805,6.029,13.3000,4.60036,2470.297,2022-4-07T07:16:28Z
2022-04-07T05:17:53Z,42.805,6.029,13.2999,4.60036,2470.273,2022-4-07T07:19:31Z
2022-04-07T05:20:56Z,42.805,6.029,13.3001,4.60036,2470.25,2022-4-07T07:22:34Z
2022-04-07T05:24:00Z,42.805,6.029,13.2998,4.60036,2470.273,2022-4-07T07:25:37Z
2022-04-07T05:27:03Z,42.805,6.029,13.2997,4.60035,2470.25,2022-4-07T07:28:40Z
2022-04-07T05:30:06Z,42.805,6.029,13.3003,4.60037,2470.264,2022-4-07T07:31:44Z
2022-04-07T05:33:09Z,42.805,6.029,13.3000,4.60036,2470.273,2022-4-07T07:34:47Z
2022-04-07T05:36:12Z,42.805,6.029,13.2997,4.60037,2470.264,2022-4-07T07:37:50Z
2022-04-07T05:39:15Z,42.805,6.029,13.3000,4.60036,2470.25,2022-4-07T07:40:53Z
2022-04-07T05:42:18Z,42.805,6.029,13.2998,4.60034,2470.273,2022-4-07T07:43:56Z
2022-04-07T05:45:21Z,42.805,6.029,13.3000,4.60037,2470.25,2022-4-07T07:46:59Z
2022-04-07T05:48:25Z,42.805,6.029,13.2997,4.60036,2470.25,2022-4-07T07:50:02Z
2022-04-07T05:51:28Z,42.805,6.029,13.2998,4.60034,2470.264,2022-4-07T07:53:05Z
2022-04-07T05:54:31Z,42.805,6.029,13.2997,4.60034,2470.227,2022-4-07T07:56:09Z
2022-04-07T05:57:34Z,42.805,6.029,13.2997,4.60035,2470.287,2022-4-07T07:59:12Z
2022-04-07T06:00:37Z,42.805,6.029,13.2998,4.60034,2470.273,2022-4-07T08:02:15Z
2022-04-07T06:03:40Z,42.805,6.029,13.2998,4.60036,2470.273,2022-4-07T08:05:18Z
2022-04-07T06:06:43Z,42.805,6.029,13.2992,4.60036,2470.227,2022-4-07T08:08:21Z
2022-04-07T06:09:46Z,42.805,6.029,13.3000,4.60038,2470.25,2022-4-07T08:11:24Z
2022-04-07T06:12:49Z,42.805,6.029,13.2997,4.60034,2470.264,2022-4-07T08:14:27Z
2022-04-07T06:15:53Z,42.805,6.029,13.3000,4.60037,2470.227,2022-4-07T08:17:30Z
2022-04-07T06:18:56Z,42.805,6.029,13.3001,4.60034,2470.283,2022-4-07T08:20:33Z
2022-04-07T06:21:59Z,42.805,6.029,13.3000,4.60036,2470.25,2022-4-07T08:23:37Z
2022-04-07T06:25:02Z,42.805,6.029,13.2999,4.60039,2470.24,2022-4-07T08:26:40Z
2022-04-07T06:28:05Z,42.805,6.029,13.2999,4.60035,2470.227,2022-4-07T08:29:43Z
2022-04-07T06:31:08Z,42.805,6.029,13.2999,4.60035,2470.25,2022-4-07T08:32:46Z
2022-04-07T06:34:11Z,42.805,6.029,13.3001,4.60034,2470.273,2022-4-07T08:35:49Z
2022-04-07T06:37:14Z,42.805,6.029,13.2998,4.60036,2470.273,2022-4-07T08:38:52Z
2022-04-07T06:40:18Z,42.805,6.029,13.2997,4.60036,2470.264,2022-4-07T08:41:55Z
2022-04-07T06:43:21Z,42.805,6.029,13.2997,4.60036,2470.25,2022-4-07T08:44:58Z
2022-04-07T06:46:24Z,42.805,6.029,13.3000,4.60033,2470.273,2022-4-07T08:48:02Z
2022-04-07T06:49:27Z,42.805,6.029,13.2997,4.60034,2470.264,2022-4-07T08:51:05Z
2022-04-07T06:52:30Z,42.805,6.029,13.3000,4.60036,2470.273,2022-4-07T08:54:08Z
2022-04-07T06:55:33Z,42.805,6.029,13.2999,4.60035,2470.31,2022-4-07T08:57:11Z
2022-04-07T06:58:36Z,42.805,6.029,13.2998,4.60036,2470.25,2022-4-07T09:00:14Z
2022-04-07T07:01:39Z,42.805,6.029,13.2999,4.60035,2470.273,2022-4-07T09:03:17Z
2022-04-07T07:04:42Z,42.805,6.029,13.3000,4.60036,2470.287,2022-4-07T09:06:20Z
2022-04-07T07:07:46Z,42.805,6.029,13.2994,4.60034,2470.297,2022-4-07T09:09:23Z
2022-04-07T07:10:49Z,42.805,6.029,13.2998,4.60035,2470.287,2022-4-07T09:12:26Z
2022-04-07T07:13:52Z,42.805,6.029,13.3000,4.60034,2470.264,2022-4-07T09:15:30Z
2022-04-07T07:16:55Z,42.805,6.029,13.2998,4.60034,2470.297,2022-4-07T09:18:33Z
2022-04-07T07:19:58Z,42.805,6.029,13.2997,4.60036,2470.273,2022-4-07T09:21:36Z
2022-04-07T07:23:01Z,42.805,6.029,13.2998,4.60034,2470.32,2022-4-07T09:24:39Z
2022-04-07T07:26:04Z,42.805,6.029,13.2997,4.60038,2470.31,2022-4-07T09:27:42Z
2022-04-07T07:29:07Z,42.805,6.029,13.2998,4.60039,2470.273,2022-4-07T09:30:45Z
2022-04-07T07:32:11Z,42.805,6.029,13.2998,4.60036,2470.273,2022-4-07T09:33:48Z
2022-04-07T07:35:14Z,42.805,6.029,13.3000,4.60035,2470.287,2022-4-07T09:36:51Z
2022-04-07T07:38:17Z,42.805,6.029,13.2997,4.60033,2470.287,2022-4-07T09:39:55Z
2022-04-07T07:41:20Z,42.805,6.029,13.2996,4.60034,2470.297,2022-4-07T09:42:58Z
2022-04-07T07:44:23Z,42.805,6.029,13.3004,4.60033,2470.32,2022-4-07T09:46:01Z
2022-04-07T07:47:26Z,42.805,6.029,13.3000,4.60033,2470.273,2022-4-07T09:49:04Z
2022-04-07T07:50:29Z,42.805,6.029,13.3000,4.60035,2470.297,2022-4-07T09:52:07Z
2022-04-07T07:53:32Z,42.805,6.029,13.2998,4.60033,2470.287,2022-4-07T09:55:10Z
2022-04-07T07:56:35Z,42.805,6.029,13.2998,4.60034,2470.297,2022-4-07T09:58:13Z
2022-04-07T07:59:39Z,42.805,6.029,13.3000,4.60034,2470.297,2022-4-07T10:01:16Z
2022-04-07T08:02:42Z,42.805,6.029,13.3000,4.60038,2470.297,2022-4-07T10:04:19Z
2022-04-07T08:05:45Z,42.805,6.029,13.2999,4.60035,2470.32,2022-4-07T10:07:23Z
2022-04-07T08:08:48Z,42.805,6.029,13.2999,4.60038,2470.334,2022-4-07T10:10:26Z
2022-04-07T08:11:51Z,42.805,6.029,13.2999,4.60036,2470.297,2022-4-07T10:13:29Z
2022-04-07T08:14:54Z,42.805,6.029,13.3000,4.60036,2470.297,2022-4-07T10:16:32Z
2022-04-07T08:17:57Z,42.805,6.029,13.3002,4.60034,2470.334,2022-4-07T10:19:35Z
2022-04-07T08:21:00Z,42.805,6.029,13.2999,4.60037,2470.297,2022-4-07T10:22:38Z
2022-04-07T08:24:04Z,42.805,6.029,13.2996,4.60035,2470.26,2022-4-07T10:25:41Z
2022-04-07T08:27:07Z,42.805,6.029,13.2996,4.60037,2470.287,2022-4-07T10:28:44Z
2022-04-07T08:30:10Z,42.805,6.029,13.2998,4.60037,2470.297,2022-4-07T10:31:48Z
2022-04-07T08:33:13Z,42.805,6.029,13.2998,4.60035,2470.297,2022-4-07T10:34:51Z
2022-04-07T08:36:16Z,42.805,6.029,13.2997,4.60034,2470.32,2022-4-07T10:37:54Z
2022-04-07T08:39:19Z,42.805,6.029,13.3000,4.60033,2470.32,2022-4-07T10:40:57Z
2022-04-07T08:42:22Z,42.805,6.029,13.3000,4.60036,2470.273,2022-4-07T10:44:00Z
2022-04-07T08:45:25Z,42.805,6.029,13.2998,4.60036,2470.334,2022-4-07T10:47:03Z
2022-04-07T08:48:29Z,42.805,6.029,13.2999,4.60036,2470.334,2022-4-07T10:50:06Z
2022-04-07T08:51:32Z,42.805,6.029,13.2998,4.60037,2470.32,2022-4-07T10:53:09Z
2022-04-07T08:54:35Z,42.805,6.029,13.2998,4.60033,2470.297,2022-4-07T10:56:13Z
2022-04-07T08:57:38Z,42.805,6.029,13.3004,4.60036,2470.32,2022-4-07T10:59:16Z
2022-04-07T09:00:41Z,42.805,6.029,13.2998,4.60037,2470.334,2022-4-07T11:02:19Z
2022-04-07T09:03:44Z,42.805,6.029,13.2999,4.60037,2470.297,2022-4-07T11:05:22Z
2022-04-07T09:06:47Z,42.805,6.029,13.2997,4.60039,2470.32,2022-4-07T11:08:25Z
2022-04-07T09:09:50Z,42.805,6.029,13.2996,4.60039,2470.343,2022-4-07T11:11:28Z
2022-04-07T09:12:53Z,42.805,6.029,13.3002,4.60034,2470.32,2022-4-07T11:14:31Z
2022-04-07T09:15:57Z,42.805,6.029,13.2996,4.60036,2470.32,2022-4-07T11:17:34Z
2022-04-07T09:19:00Z,42.805,6.029,13.2996,4.60038,2470.343,2022-4-07T11:20:38Z
2022-04-07T09:22:03Z,42.805,6.029,13.2994,4.60034,2470.32,2022-4-07T11:23:41Z
2022-04-07T09:25:06Z,42.805,6.029,13.2998,4.60036,2470.32,2022-4-07T11:26:44Z
2022-04-07T09:28:09Z,42.805,6.029,13.3001,4.60034,2470.334,2022-4-07T11:29:47Z
2022-04-07T09:31:12Z,42.805,6.029,13.3000,4.60036,2470.343,2022-4-07T11:32:50Z
2022-04-07T09:34:15Z,42.805,6.029,13.2999,4.60039,2470.343,2022-4-07T11:35:53Z
2022-04-07T09:37:18Z,42.805,6.029,13.3000,4.60034,2470.32,2022-4-07T11:38:56Z
2022-04-07T09:40:22Z,42.805,6.029,13.2999,4.60035,2470.32,2022-4-07T11:41:59Z
2022-04-07T09:43:25Z,42.805,6.029,13.2998,4.60036,2470.38,2022-4-07T11:45:02Z
2022-04-07T09:46:28Z,42.805,6.029,13.2998,4.60035,2470.297,2022-4-07T11:48:06Z
2022-04-07T09:49:31Z,42.805,6.029,13.2998,4.60034,2470.343,2022-4-07T11:51:09Z
2022-04-07T09:52:34Z,42.805,6.029,13.3000,4.60035,2470.357,2022-4-07T11:54:12Z
2022-04-07T09:55:37Z,42.805,6.029,13.3000,4.60037,2470.343,2022-4-07T11:57:15Z
2022-04-07T09:58:40Z,42.805,6.029,13.3001,4.60035,2470.334,2022-4-07T12:00:18Z
2022-04-07T10:01:43Z,42.805,6.029,13.3004,4.60037,2470.32,2022-4-07T12:03:21Z
2022-04-07T10:04:47Z,42.805,6.029,13.2998,4.60035,2470.32,2022-4-07T12:06:24Z
2022-04-07T10:07:50Z,42.805,6.029,13.3000,4.60038,2470.343,2022-4-07T12:09:27Z
2022-04-07T10:10:53Z,42.805,6.029,13.3000,4.60035,2470.32,2022-4-07T12:12:31Z
2022-04-07T10:13:56Z,42.805,6.029,13.3000,4.60036,2470.343,2022-4-07T12:15:34Z
2022-04-07T10:16:59Z,42.805,6.029,13.2999,4.60035,2470.366,2022-4-07T12:18:37Z
2022-04-07T10:20:02Z,42.805,6.029,13.2999,4.60040,2470.343,2022-4-07T12:21:40Z
2022-04-07T10:23:05Z,42.805,6.029,13.2998,4.60034,2470.343,2022-4-07T12:24:43Z
2022-04-07T10:26:08Z,42.805,6.029,13.3002,4.60034,2470.343,2022-4-07T12:27:46Z
2022-04-07T10:29:12Z,42.805,6.029,13.3000,4.60039,2470.38,2022-4-07T12:30:49Z
2022-04-07T10:32:15Z,42.805,6.029,13.2998,4.60034,2470.404,2022-4-07T12:33:52Z
2022-04-07T10:35:18Z,42.805,6.029,13.2996,4.60037,2470.357,2022-4-07T12:36:56Z
2022-04-07T10:38:21Z,42.805,6.029,13.3000,4.60037,2470.343,2022-4-07T12:39:59Z
2022-04-07T10:41:24Z,42.805,6.029,13.2998,4.60042,2470.357,2022-4-07T12:43:02Z
2022-04-07T10:44:27Z,42.805,6.029,13.3000,4.60038,2470.357,2022-4-07T12:46:05Z
2022-04-07T10:47:30Z,42.805,6.029,13.2999,4.60036,2470.343,2022-4-07T12:49:08Z
2022-04-07T10:50:33Z,42.805,6.029,13.3000,4.60033,2470.343,2022-4-07T12:52:11Z
2022-04-07T10:53:37Z,42.805,6.029,13.3000,4.60038,2470.32,2022-4-07T12:55:14Z
2022-04-07T10:56:40Z,42.805,6.029,13.2996,4.60036,2470.343,2022-4-07T12:58:17Z
2022-04-07T10:59:43Z,42.805,6.029,13.2997,4.60038,2470.366,2022-4-07T13:01:21Z
2022-04-07T11:02:46Z,42.805,6.029,13.3003,4.60042,2470.357,2022-4-07T13:04:24Z
2022-04-07T11:05:49Z,42.805,6.029,13.2998,4.60034,2470.343,2022-4-07T13:07:27Z
2022-04-07T11:08:52Z,42.805,6.029,13.2998,4.60033,2470.334,2022-4-07T13:10:30Z
2022-04-07T11:11:55Z,42.805,6.029,13.2995,4.60033,2470.357,2022-4-07T13:13:33Z
2022-04-07T11:14:58Z,42.805,6.029,13.3000,4.60037,2470.366,2022-4-07T13:16:36Z
2022-04-07T11:18:01Z,42.805,6.029,13.2998,4.60038,2470.357,2022-4-07T13:19:39Z
2022-04-07T11:21:05Z,42.805,6.029,13.3000,4.60039,2470.343,2022-4-07T13:22:42Z
2022-04-07T11:24:08Z,42.805,6.029,13.2999,4.60038,2470.38,2022-4-07T13:25:45Z
2022-04-07T11:27:11Z,42.805,6.029,13.2998,4.60037,2470.343,2022-4-07T13:28:49Z
2022-04-07T11:30:14Z,42.805,6.029,13.2999,4.60036,2470.343,2022-4-07T13:31:52Z
2022-04-07T11:33:18Z,42.805,6.029,13.2998,4.60038,2470.32,2022-4-07T13:34:56Z
2022-04-07T11:36:21Z,42.805,6.029,13.2996,4.60036,2470.343,2022-4-07T13:37:59Z
2022-04-07T11:39:24Z,42.805,6.029,13.2998,4.60036,2470.366,2022-4-07T13:41:02Z
2022-04-07T11:42:27Z,42.805,6.029,13.2998,4.60034,2470.343,2022-4-07T13:44:05Z
2022-04-07T11:45:30Z,42.805,6.029,13.2999,4.60035,2470.366,2022-4-07T13:47:08Z
2022-04-07T11:48:33Z,42.805,6.029,13.2997,4.60036,2470.366,2022-4-07T13:50:11Z
2022-04-07T11:51:36Z,42.805,6.029,13.2998,4.60036,2470.297,2022-4-07T13:53:14Z
2022-04-07T11:54:40Z,42.805,6.029,13.2998,4.60035,2470.343,2022-4-07T13:56:17Z
2022-04-07T11:57:43Z,42.805,6.029,13.2996,4.60034,2470.38,2022-4-07T13:59:21Z
2022-04-07T12:00:46Z,42.805,6.029,13.3002,4.60039,2470.343,2022-4-07T14:02:24Z
2022-04-07T12:03:49Z,42.805,6.029,13.3000,4.60036,2470.38,2022-4-07T14:05:27Z
2022-04-07T12:06:52Z,42.805,6.029,13.3000,4.60033,2470.366,2022-4-07T14:08:30Z
2022-04-07T12:09:55Z,42.805,6.029,13.2998,4.60036,2470.343,2022-4-07T14:11:33Z
2022-04-07T12:12:58Z,42.805,6.029,13.2998,4.60038,2470.32,2022-4-07T14:14:36Z
2022-04-07T12:16:01Z,42.805,6.029,13.2999,4.60037,2470.32,2022-4-07T14:17:39Z
2022-04-07T12:19:05Z,42.805,6.029,13.2996,4.60037,2470.32,2022-4-07T14:20:42Z
2022-04-07T12:22:08Z,42.805,6.029,13.2996,4.60037,2470.343,2022-4-07T14:23:45Z
2022-04-07T12:25:11Z,42.805,6.029,13.3001,4.60033,2470.334,2022-4-07T14:26:49Z
2022-04-07T12:28:14Z,42.805,6.029,13.2993,4.60035,2470.343,2022-4-07T14:29:52Z
2022-04-07T12:31:17Z,42.805,6.029,13.2996,4.60033,2470.32,2022-4-07T14:32:55Z
2022-04-07T12:34:20Z,42.805,6.029,13.3000,4.60042,2470.343,2022-4-07T14:35:58Z
2022-04-07T12:37:23Z,42.805,6.029,13.2998,4.60035,2470.31,2022-4-07T14:39:01Z
2022-04-07T12:40:26Z,42.805,6.029,13.2999,4.60033,2470.31,2022-4-07T14:42:04Z
2022-04-07T12:43:30Z,42.805,6.029,13.3001,4.60041,2470.297,2022-4-07T14:45:07Z
2022-04-07T12:46:33Z,42.805,6.029,13.2997,4.60036,2470.32,2022-4-07T14:48:10Z
2022-04-07T12:49:36Z,42.805,6.029,13.2998,4.60033,2470.32,2022-4-07T14:51:14Z
2022-04-07T12:52:39Z,42.805,6.029,13.2999,4.60036,2470.273,2022-4-07T14:54:17Z
2022-04-07T12:55:42Z,42.805,6.029,13.3000,4.60035,2470.297,2022-4-07T14:57:20Z
2022-04-07T12:58:45Z,42.805,6.029,13.3000,4.60034,2470.343,2022-4-07T15:00:23Z
2022-04-07T13:01:48Z,42.805,6.029,13.3000,4.60038,2470.297,2022-4-07T15:03:26Z
2022-04-07T13:04:51Z,42.805,6.029,13.2995,4.60035,2470.297,2022-4-07T15:06:29Z
2022-04-07T13:07:54Z,42.805,6.029,13.2993,4.60034,2470.334,2022-4-07T15:09:32Z
2022-04-07T13:10:58Z,42.805,6.029,13.2999,4.60040,2470.297,2022-4-07T15:12:35Z
2022-04-07T13:14:01Z,42.805,6.029,13.3000,4.60036,2470.287,2022-4-07T15:15:38Z
2022-04-07T13:17:04Z,42.805,6.029,13.2999,4.60035,2470.31,2022-4-07T15:18:42Z
2022-04-07T13:20:07Z,42.805,6.029,13.3002,4.60036,2470.273,2022-4-07T15:21:45Z
2022-04-07T13:23:10Z,42.805,6.029,13.2996,4.60035,2470.264,2022-4-07T15:24:48Z
2022-04-07T13:26:13Z,42.805,6.029,13.3001,4.60034,2470.25,2022-4-07T15:27:51Z
2022-04-07T13:29:16Z,42.805,6.029,13.2998,4.60036,2470.25,2022-4-07T15:30:54Z
2022-04-07T13:32:19Z,42.805,6.029,13.3000,4.60040,2470.25,2022-4-07T15:33:57Z
2022-04-07T13:35:23Z,42.805,6.029,13.3000,4.60042,2470.297,2022-4-07T15:37:00Z
2022-04-07T13:38:26Z,42.805,6.029,13.2996,4.60034,2470.31,2022-4-07T15:40:03Z
2022-04-07T13:41:29Z,42.805,6.029,13.2998,4.60033,2470.273,2022-4-07T15:43:07Z
2022-04-07T13:44:32Z,42.805,6.029,13.2996,4.60033,2470.273,2022-4-07T15:46:10Z
2022-04-07T13:47:35Z,42.805,6.029,13.3000,4.60034,2470.287,2022-4-07T15:49:13Z
2022-04-07T13:50:38Z,42.805,6.029,13.3000,4.60035,2470.287,2022-4-07T15:52:16Z
2022-04-07T13:53:41Z,42.805,6.029,13.2998,4.60035,2470.273,2022-4-07T15:55:19Z
2022-04-07T13:56:44Z,42.805,6.029,13.3004,4.60039,2470.264,2022-4-07T15:58:22Z
2022-04-07T13:59:48Z,42.805,6.029,13.3003,4.60033,2470.273,2022-4-07T16:01:25Z
2022-04-07T14:02:51Z,42.805,6.029,13.2998,4.60041,2470.264,2022-4-07T16:04:28Z
2022-04-07T14:05:54Z,42.805,6.029,13.2998,4.60035,2470.264,2022-4-07T16:07:32Z
2022-04-07T14:08:57Z,42.805,6.029,13.2999,4.60035,2470.273,2022-4-07T16:10:35Z
2022-04-07T14:12:00Z,42.805,6.029,13.2998,4.60033,2470.273,2022-4-07T16:13:38Z
2022-04-07T14:15:03Z,42.805,6.029,13.2998,4.60036,2470.264,2022-4-07T16:16:41Z
2022-04-07T14:18:06Z,42.805,6.029,13.2998,4.60039,2470.287,2022-4-07T16:19:44Z
2022-04-07T14:21:09Z,42.805,6.029,13.2998,4.60039,2470.273,2022-4-07T16:22:47Z
2022-04-07T14:24:12Z,42.805,6.029,13.2999,4.60037,2470.264,2022-4-07T16:25:50Z
2022-04-07T14:27:16Z,42.805,6.029,13.2996,4.60035,2470.25,2022-4-07T16:28:53Z
2022-04-07T14:30:19Z,42.805,6.029,13.2999,4.60033,2470.287,2022-4-07T16:31:57Z
2022-04-07T14:33:22Z,42.805,6.029,13.2998,4.60046,2470.273,2022-4-07T16:35:00Z
2022-04-07T14:36:25Z,42.805,6.029,13.2997,4.60038,2470.25,2022-4-07T16:38:03Z
2022-04-07T14:39:28Z,42.805,6.029,13.2999,4.60034,2470.334,2022-4-07T16:41:06Z
2022-04-07T14:42:31Z,42.805,6.029,13.3003,4.60037,2470.264,2022-4-07T16:44:09Z
2022-04-07T14:45:34Z,42.805,6.029,13.3000,4.60039,2470.273,2022-4-07T16:47:12Z
2022-04-07T14:48:37Z,42.805,6.029,13.2999,4.60042,2470.297,2022-4-07T16:50:15Z
2022-04-07T14:51:41Z,42.805,6.029,13.2998,4.60035,2470.297,2022-4-07T16:53:18Z
2022-04-07T14:54:44Z,42.805,6.029,13.2998,4.60036,2470.287,2022-4-07T16:56:21Z
2022-04-07T14:57:47Z,42.805,6.029,13.2998,4.60034,2470.25,2022-4-07T16:59:25Z
2022-04-07T15:00:50Z,42.805,6.029,13.2996,4.60039,2470.273,2022-4-07T17:02:28Z
2022-04-07T15:03:53Z,42.805,6.029,13.2998,4.60043,2470.273,2022-4-07T17:05:31Z
2022-04-07T15:06:56Z,42.805,6.029,13.2998,4.60043,2470.264,2022-4-07T17:08:34Z
2022-04-07T15:09:59Z,42.805,6.029,13.2999,4.60036,2470.287,2022-4-07T17:11:37Z